Time,TemperatureF,DewpointF,PressureIn,WindDirection,WindDirectionDegrees,WindSpeedMPH,WindSpeedGustMPH,Humidity,HourlyPrecipIn,Conditions,Clouds,dailyrainin,SoftwareType,DateUTC
2013-04-14 00:00:00,65.5,55.0,29.84,ESE,105,4.0,17.0,69,0.00,,,0.00,meteohub,2013-04-14 05:00:00,
2013-04-14 00:05:00,64.6,55.0,29.86,ESE,119,3.0,17.0,71,0.00,,,0.00,meteohub,2013-04-14 05:05:00,
2013-04-14 00:10:00,63.7,55.6,29.87,West,279,3.0,17.0,75,0.00,,,0.00,meteohub,2013-04-14 05:10:00,
2013-04-14 00:15:00,63.0,56.3,29.88,WSW,255,4.0,8.0,79,0.01,,,0.01,meteohub,2013-04-14 05:15:00,
2013-04-14 00:20:00,61.9,56.3,29.88,West,273,5.0,9.0,82,0.01,,,0.01,meteohub,2013-04-14 05:20:00,
2013-04-14 00:25:00,61.0,56.1,29.86,WNW,283,2.0,9.0,84,0.03,,,0.03,meteohub,2013-04-14 05:25:00,
2013-04-14 00:30:00,60.8,56.7,29.86,WNW,284,1.0,9.0,86,0.08,,,0.08,meteohub,2013-04-14 05:30:00,
2013-04-14 00:35:00,60.1,56.5,29.85,NE,49,2.0,9.0,88,0.17,,,0.17,meteohub,2013-04-14 05:35:00,
2013-04-14 00:40:00,59.7,56.1,29.86,NW,310,1.0,8.0,88,0.17,,,0.17,meteohub,2013-04-14 05:40:00,
2013-04-14 00:45:00,59.9,56.3,29.88,WSW,244,3.0,8.0,88,0.17,,,0.17,meteohub,2013-04-14 05:45:00,
2013-04-14 00:50:00,60.1,56.5,29.88,WSW,244,2.0,6.0,88,0.17,,,0.17,meteohub,2013-04-14 05:50:00,
2013-04-14 00:55:00,59.7,56.8,29.84,NE,55,3.0,5.0,90,0.23,,,0.23,meteohub,2013-04-14 05:55:00,
2013-04-14 01:00:00,59.4,56.7,29.81,West,277,1.0,5.0,91,0.25,,,0.25,meteohub,2013-04-14 06:00:00,
2013-04-14 01:05:00,59.2,56.5,29.81,West,259,1.0,5.0,91,0.25,,,0.25,meteohub,2013-04-14 06:05:00,
2013-04-14 01:10:00,59.4,57.0,29.85,SW,234,1.0,6.0,92,0.25,,,0.26,meteohub,2013-04-14 06:10:00,
2013-04-14 01:15:00,59.4,57.0,29.83,NE,44,1.0,6.0,92,0.25,,,0.26,meteohub,2013-04-14 06:15:00,
2013-04-14 01:20:00,59.2,57.2,29.83,East,82,0.0,6.0,93,0.25,,,0.28,meteohub,2013-04-14 06:20:00,
2013-04-14 01:25:00,59.2,57.2,29.85,South,181,2.0,4.0,93,0.25,,,0.29,meteohub,2013-04-14 06:25:00,
2013-04-14 01:30:00,59.2,57.4,29.85,SE,134,2.0,4.0,94,0.18,,,0.29,meteohub,2013-04-14 06:30:00,
2013-04-14 01:35:00,58.8,57.0,29.85,SE,146,1.0,5.0,94,0.19,,,0.36,meteohub,2013-04-14 06:35:00,
2013-04-14 01:41:00,58.8,57.0,29.83,ENE,67,1.0,5.0,94,0.24,,,0.41,meteohub,2013-04-14 06:41:00,
2013-04-14 01:46:00,58.8,57.4,29.86,South,179,3.0,5.0,95,0.27,,,0.44,meteohub,2013-04-14 06:46:00,
2013-04-14 01:51:00,58.8,57.4,29.89,West,266,4.0,6.0,95,0.32,,,0.52,meteohub,2013-04-14 06:51:00,
2013-04-14 01:56:00,58.6,57.6,29.88,West,259,5.0,10.0,96,0.51,,,0.75,meteohub,2013-04-14 06:56:00,
2013-04-14 02:01:00,58.3,57.2,29.86,SW,233,0.0,10.0,96,0.54,,,0.79,meteohub,2013-04-14 07:01:00,
2013-04-14 02:06:00,58.1,57.0,29.83,ENE,74,5.0,10.0,96,0.62,,,0.87,meteohub,2013-04-14 07:06:00,
2013-04-14 02:11:00,57.9,57.0,29.83,ENE,78,3.0,7.0,97,0.65,,,0.91,meteohub,2013-04-14 07:11:00,
2013-04-14 02:16:00,57.9,57.0,29.83,East,82,1.0,6.0,97,0.65,,,0.92,meteohub,2013-04-14 07:16:00,
2013-04-14 02:21:00,58.1,57.2,29.83,East,82,0.0,6.0,97,0.66,,,0.94,meteohub,2013-04-14 07:21:00,
2013-04-14 02:26:00,58.3,57.4,29.83,NE,41,1.0,5.0,97,0.66,,,0.95,meteohub,2013-04-14 07:26:00,
2013-04-14 02:31:00,58.5,57.9,29.82,NNE,30,3.0,4.0,98,0.65,,,0.95,meteohub,2013-04-14 07:31:00,
2013-04-14 02:37:00,58.6,57.7,29.82,NNW,330,3.0,5.0,97,0.60,,,0.98,meteohub,2013-04-14 07:37:00,
2013-04-14 02:42:00,58.6,57.7,29.82,NW,315,1.0,5.0,97,0.61,,,1.00,meteohub,2013-04-14 07:42:00,
2013-04-14 02:47:00,58.5,57.6,29.82,NW,309,2.0,9.0,97,0.58,,,1.05,meteohub,2013-04-14 07:47:00,
2013-04-14 02:52:00,58.3,57.4,29.83,West,268,2.0,9.0,97,0.53,,,1.06,meteohub,2013-04-14 07:52:00,
2013-04-14 02:57:00,57.7,56.7,29.83,NNE,15,1.0,11.0,96,0.30,,,1.06,meteohub,2013-04-14 07:57:00,
2013-04-14 03:02:00,57.6,56.5,29.83,NNE,18,4.0,11.0,96,0.25,,,1.08,meteohub,2013-04-14 08:02:00,
2013-04-14 03:07:00,57.2,56.1,29.83,West,278,3.0,11.0,96,0.27,,,1.16,meteohub,2013-04-14 08:07:00,
2013-04-14 03:12:00,57.0,55.9,29.84,NW,314,5.0,9.0,96,0.29,,,1.20,meteohub,2013-04-14 08:12:00,
2013-04-14 03:17:00,57.0,56.1,29.85,North,351,4.0,10.0,97,0.28,,,1.22,meteohub,2013-04-14 08:17:00,
2013-04-14 03:22:00,56.8,55.9,29.85,NE,42,2.0,11.0,97,0.29,,,1.23,meteohub,2013-04-14 08:22:00,
2013-04-14 03:27:00,56.7,55.8,29.83,NNW,340,4.0,11.0,97,0.29,,,1.24,meteohub,2013-04-14 08:27:00,
2013-04-14 03:32:00,56.7,55.8,29.84,North,349,4.0,11.0,97,0.29,,,1.25,meteohub,2013-04-14 08:32:00,
2013-04-14 03:37:00,56.5,55.6,29.84,NE,49,3.0,14.0,97,0.27,,,1.26,meteohub,2013-04-14 08:37:00,
2013-04-14 03:42:00,56.5,55.6,29.84,SW,228,3.0,14.0,97,0.25,,,1.28,meteohub,2013-04-14 08:42:00,
2013-04-14 03:47:00,56.7,55.8,29.84,NE,53,3.0,14.0,97,0.29,,,1.34,meteohub,2013-04-14 08:47:00,
2013-04-14 03:52:00,57.0,56.1,29.83,East,84,7.0,12.0,97,0.33,,,1.39,meteohub,2013-04-14 08:52:00,
2013-04-14 03:57:00,57.0,56.1,29.82,East,92,6.0,13.0,97,0.42,,,1.49,meteohub,2013-04-14 08:57:00,
2013-04-14 04:02:00,57.0,56.1,29.81,ENE,63,2.0,16.0,97,0.48,,,1.58,meteohub,2013-04-14 09:02:00,
2013-04-14 04:07:00,57.2,56.3,29.81,ESE,113,2.0,16.0,97,0.41,,,1.60,meteohub,2013-04-14 09:07:00,
2013-04-14 04:12:00,57.4,56.5,29.81,NNE,21,4.0,14.0,97,0.39,,,1.60,meteohub,2013-04-14 09:12:00,
2013-04-14 04:17:00,57.9,57.4,29.79,NE,46,3.0,14.0,98,0.42,,,1.64,meteohub,2013-04-14 09:17:00,
2013-04-14 04:22:00,58.5,57.9,29.78,WNW,302,5.0,14.0,98,0.51,,,1.74,meteohub,2013-04-14 09:22:00,
2013-04-14 04:27:00,58.5,57.6,29.79,East,84,2.0,10.0,97,0.54,,,1.78,meteohub,2013-04-14 09:27:00,
2013-04-14 04:32:00,58.5,57.6,29.80,ENE,58,10.0,13.0,97,0.58,,,1.83,meteohub,2013-04-14 09:32:00,
2013-04-14 04:37:00,58.6,57.7,29.80,NE,55,11.0,13.0,97,0.58,,,1.85,meteohub,2013-04-14 09:37:00,
2013-04-14 04:43:00,58.6,57.7,29.79,ENE,71,10.0,13.0,97,0.57,,,1.87,meteohub,2013-04-14 09:43:00,
2013-04-14 04:47:00,58.8,57.9,29.79,East,81,10.0,16.0,97,0.54,,,1.90,meteohub,2013-04-14 09:47:00,
2013-04-14 04:53:00,59.0,58.1,29.78,ENE,57,5.0,16.0,97,0.48,,,1.91,meteohub,2013-04-14 09:53:00,
2013-04-14 04:58:00,59.4,58.5,29.77,East,88,5.0,15.0,97,0.36,,,1.91,meteohub,2013-04-14 09:58:00,
2013-04-14 05:03:00,59.5,58.6,29.78,East,83,8.0,15.0,97,0.32,,,1.91,meteohub,2013-04-14 10:03:00,
2013-04-14 05:08:00,59.7,59.2,29.79,ENE,65,1.0,15.0,98,0.31,,,1.91,meteohub,2013-04-14 10:08:00,
2013-04-14 05:13:00,59.9,59.0,29.80,WNW,292,4.0,14.0,97,0.30,,,1.91,meteohub,2013-04-14 10:13:00,
2013-04-14 05:18:00,60.1,59.5,29.80,WNW,285,0.0,11.0,98,0.24,,,1.93,meteohub,2013-04-14 10:18:00,
2013-04-14 05:23:00,60.1,59.5,29.79,NNE,14,2.0,11.0,98,0.17,,,1.93,meteohub,2013-04-14 10:23:00,
2013-04-14 05:28:00,60.3,59.7,29.78,East,94,0.0,7.0,98,0.12,,,1.94,meteohub,2013-04-14 10:28:00,
2013-04-14 05:33:00,60.3,59.7,29.77,ENE,78,4.0,7.0,98,0.11,,,1.94,meteohub,2013-04-14 10:33:00,
2013-04-14 05:38:00,60.3,59.7,29.75,East,96,2.0,8.0,98,0.09,,,1.95,meteohub,2013-04-14 10:38:00,
2013-04-14 05:43:00,60.4,59.9,29.77,NE,46,4.0,10.0,98,0.06,,,1.95,meteohub,2013-04-14 10:43:00,
2013-04-14 05:48:00,60.4,59.9,29.78,East,85,1.0,10.0,98,0.06,,,1.96,meteohub,2013-04-14 10:48:00,
2013-04-14 05:53:00,60.4,59.9,29.79,ENE,74,2.0,10.0,98,0.08,,,1.99,meteohub,2013-04-14 10:53:00,
2013-04-14 05:58:00,60.4,59.9,29.78,North,5,0.0,6.0,98,0.11,,,2.02,meteohub,2013-04-14 10:58:00,
2013-04-14 06:03:00,60.3,59.7,29.78,ESE,117,5.0,6.0,98,0.13,,,2.04,meteohub,2013-04-14 11:03:00,
2013-04-14 06:08:00,60.3,59.7,29.78,ENE,65,10.0,10.0,98,0.13,,,2.04,meteohub,2013-04-14 11:08:00,
2013-04-14 06:13:00,60.4,59.9,29.77,ESE,120,2.0,10.0,98,0.13,,,2.05,meteohub,2013-04-14 11:13:00,
2013-04-14 06:18:00,60.4,59.9,29.77,East,101,3.0,15.0,98,0.14,,,2.07,meteohub,2013-04-14 11:18:00,
2013-04-14 06:23:00,60.6,60.1,29.79,SSE,157,0.0,15.0,98,0.14,,,2.07,meteohub,2013-04-14 11:23:00,
2013-04-14 06:28:00,60.6,60.1,29.77,East,88,10.0,15.0,98,0.13,,,2.07,meteohub,2013-04-14 11:28:00,
2013-04-14 06:33:00,61.0,60.4,29.75,ENE,65,7.0,14.0,98,0.14,,,2.08,meteohub,2013-04-14 11:33:00,
2013-04-14 06:38:00,61.2,60.6,29.75,ESE,117,5.0,16.0,98,0.13,,,2.08,meteohub,2013-04-14 11:38:00,
2013-04-14 06:43:00,61.2,60.6,29.75,ENE,66,11.0,16.0,98,0.13,,,2.08,meteohub,2013-04-14 11:43:00,
2013-04-14 06:48:00,61.2,60.6,29.76,ENE,65,3.0,17.0,98,0.11,,,2.09,meteohub,2013-04-14 11:48:00,
2013-04-14 06:53:00,61.2,60.6,29.76,ESE,107,4.0,17.0,98,0.08,,,2.09,meteohub,2013-04-14 11:53:00,
2013-04-14 06:58:00,61.2,60.6,29.77,ENE,67,3.0,17.0,98,0.07,,,2.09,meteohub,2013-04-14 11:58:00,
2013-04-14 07:03:00,61.0,60.4,29.78,East,86,5.0,10.0,98,0.06,,,2.10,meteohub,2013-04-14 12:03:00,
2013-04-14 07:08:00,61.0,60.4,29.78,ESE,116,4.0,10.0,98,0.06,,,2.10,meteohub,2013-04-14 12:08:00,
2013-04-14 07:13:00,61.0,60.4,29.77,ENE,70,4.0,10.0,98,0.04,,,2.10,meteohub,2013-04-14 12:13:00,
2013-04-14 07:18:00,61.0,60.4,29.76,ENE,66,7.0,13.0,98,0.04,,,2.11,meteohub,2013-04-14 12:18:00,
2013-04-14 07:23:00,61.0,60.4,29.76,ENE,67,5.0,15.0,98,0.04,,,2.11,meteohub,2013-04-14 12:23:00,
2013-04-14 07:28:00,61.3,60.8,29.77,SSW,196,1.0,17.0,98,0.04,,,2.11,meteohub,2013-04-14 12:28:00,
2013-04-14 07:33:00,61.3,60.4,29.78,ENE,76,7.0,17.0,97,0.03,,,2.11,meteohub,2013-04-14 12:33:00,
2013-04-14 07:38:00,61.5,60.6,29.77,ENE,63,7.0,8.0,97,0.03,,,2.11,meteohub,2013-04-14 12:38:00,
2013-04-14 07:43:00,61.5,60.6,29.77,NE,56,16.0,16.0,97,0.02,,,2.11,meteohub,2013-04-14 12:43:00,
2013-04-14 07:48:00,61.5,60.6,29.78,ESE,109,2.0,16.0,97,0.02,,,2.11,meteohub,2013-04-14 12:48:00,
2013-04-14 07:53:00,61.5,60.6,29.78,SE,129,5.0,16.0,97,0.02,,,2.11,meteohub,2013-04-14 12:53:00,
2013-04-14 07:58:00,61.5,60.6,29.78,ENE,59,8.0,16.0,97,0.01,,,2.11,meteohub,2013-04-14 12:58:00,
2013-04-14 08:03:00,61.5,60.6,29.79,East,84,7.0,15.0,97,0.01,,,2.11,meteohub,2013-04-14 13:03:00,
2013-04-14 08:09:00,61.3,60.4,29.81,West,276,3.0,15.0,97,0.01,,,2.11,meteohub,2013-04-14 13:09:00,
2013-04-14 08:13:00,61.5,60.6,29.85,West,271,7.0,15.0,97,0.01,,,2.11,meteohub,2013-04-14 13:13:00,
2013-04-14 08:18:00,61.5,60.6,29.86,West,259,6.0,14.0,97,0.00,,,2.11,meteohub,2013-04-14 13:18:00,
2013-04-14 08:24:00,61.5,60.6,29.81,East,83,3.0,14.0,97,0.00,,,2.11,meteohub,2013-04-14 13:24:00,
2013-04-14 08:29:00,61.3,60.4,29.81,ENE,69,4.0,14.0,97,0.11,,,2.22,meteohub,2013-04-14 13:29:00,
2013-04-14 08:34:00,61.3,60.8,29.80,East,82,10.0,14.0,98,0.15,,,2.26,meteohub,2013-04-14 13:34:00,
2013-04-14 08:39:00,61.3,60.8,29.80,East,88,5.0,9.0,98,0.16,,,2.27,meteohub,2013-04-14 13:39:00,
2013-04-14 08:44:00,61.3,60.4,29.80,ENE,65,1.0,11.0,97,0.16,,,2.27,meteohub,2013-04-14 13:44:00,
2013-04-14 08:49:00,61.5,61.0,29.80,NE,35,2.0,11.0,98,0.16,,,2.27,meteohub,2013-04-14 13:49:00,
2013-04-14 08:54:00,61.5,60.6,29.80,NNE,24,0.0,11.0,97,0.16,,,2.27,meteohub,2013-04-14 13:54:00,
2013-04-14 08:59:00,61.5,60.6,29.82,WNW,290,3.0,8.0,97,0.16,,,2.27,meteohub,2013-04-14 13:59:00,
2013-04-14 09:04:00,61.7,60.8,29.82,WNW,294,0.0,7.0,97,0.16,,,2.27,meteohub,2013-04-14 14:04:00,
2013-04-14 09:09:00,61.5,60.6,29.82,ESE,111,2.0,6.0,97,0.16,,,2.27,meteohub,2013-04-14 14:09:00,
2013-04-14 09:14:00,61.5,60.6,29.81,East,79,7.0,7.0,97,0.19,,,2.30,meteohub,2013-04-14 14:14:00,
2013-04-14 09:19:00,61.5,61.0,29.81,ENE,64,10.0,10.0,98,0.23,,,2.34,meteohub,2013-04-14 14:19:00,
2013-04-14 09:24:00,61.5,61.0,29.81,SE,132,2.0,16.0,98,0.29,,,2.44,meteohub,2013-04-14 14:24:00,
2013-04-14 09:29:00,61.5,61.0,29.82,ESE,113,8.0,17.0,98,0.30,,,2.54,meteohub,2013-04-14 14:29:00,
2013-04-14 09:34:00,61.5,61.0,29.81,East,85,2.0,17.0,98,0.29,,,2.55,meteohub,2013-04-14 14:34:00,
2013-04-14 09:39:00,61.5,61.0,29.81,ENE,69,4.0,17.0,98,0.41,,,2.68,meteohub,2013-04-14 14:39:00,
2013-04-14 09:44:00,61.5,61.0,29.81,ENE,76,1.0,16.0,98,0.45,,,2.72,meteohub,2013-04-14 14:44:00,
2013-04-14 09:49:00,61.5,61.0,29.81,ENE,71,9.0,11.0,98,0.45,,,2.72,meteohub,2013-04-14 14:49:00,
2013-04-14 09:54:00,61.5,61.0,29.81,ENE,65,1.0,11.0,98,0.45,,,2.72,meteohub,2013-04-14 14:54:00,
2013-04-14 09:59:00,61.5,61.0,29.81,ENE,61,3.0,14.0,98,0.45,,,2.72,meteohub,2013-04-14 14:59:00,
2013-04-14 10:04:00,61.7,61.2,29.81,East,82,3.0,14.0,98,0.45,,,2.72,meteohub,2013-04-14 15:04:00,
2013-04-14 10:09:00,61.9,61.3,29.81,East,96,7.0,11.0,98,0.44,,,2.72,meteohub,2013-04-14 15:09:00,
2013-04-14 10:14:00,62.1,61.5,29.81,ENE,74,3.0,11.0,98,0.42,,,2.73,meteohub,2013-04-14 15:14:00,
2013-04-14 10:19:00,62.2,61.7,29.82,ENE,67,4.0,11.0,98,0.35,,,2.73,meteohub,2013-04-14 15:19:00,
2013-04-14 10:24:00,62.2,61.3,29.82,ENE,71,9.0,11.0,97,0.27,,,2.73,meteohub,2013-04-14 15:24:00,
2013-04-14 10:29:00,62.2,61.7,29.82,East,98,3.0,15.0,98,0.19,,,2.73,meteohub,2013-04-14 15:29:00,
2013-04-14 10:34:00,62.4,61.9,29.81,SE,128,5.0,15.0,98,0.13,,,2.73,meteohub,2013-04-14 15:34:00,
2013-04-14 10:39:00,63.0,62.4,29.81,SE,134,5.0,15.0,98,0.03,,,2.73,meteohub,2013-04-14 15:39:00,
2013-04-14 10:44:00,63.5,63.0,29.81,ESE,112,2.0,10.0,98,0.01,,,2.73,meteohub,2013-04-14 15:44:00,
2013-04-14 10:49:00,64.2,63.7,29.80,SE,132,4.0,10.0,98,0.01,,,2.73,meteohub,2013-04-14 15:49:00,
2013-04-14 10:54:00,64.8,63.3,29.81,ESE,119,2.0,11.0,95,0.01,,,2.73,meteohub,2013-04-14 15:54:00,
2013-04-14 10:59:00,65.3,63.1,29.81,East,82,6.0,11.0,93,0.01,,,2.73,meteohub,2013-04-14 15:59:00,
2013-04-14 11:04:00,65.8,63.5,29.81,East,83,6.0,17.0,92,0.01,,,2.73,meteohub,2013-04-14 16:04:00,
2013-04-14 11:09:00,66.4,64.2,29.81,ESE,112,2.0,17.0,93,0.01,,,2.73,meteohub,2013-04-14 16:09:00,
2013-04-14 11:14:00,66.9,63.9,29.81,East,93,7.0,17.0,90,0.00,,,2.73,meteohub,2013-04-14 16:14:00,
2013-04-14 11:19:00,67.5,64.0,29.81,ENE,71,9.0,16.0,89,0.00,,,2.73,meteohub,2013-04-14 16:19:00,
2013-04-14 11:24:00,67.5,63.9,29.81,ESE,103,4.0,16.0,88,0.00,,,2.73,meteohub,2013-04-14 16:24:00,
2013-04-14 11:29:00,67.5,63.9,29.81,SE,140,7.0,16.0,88,0.00,,,2.73,meteohub,2013-04-14 16:29:00,
2013-04-14 11:34:00,67.5,63.5,29.81,East,100,3.0,16.0,87,0.00,,,2.73,meteohub,2013-04-14 16:34:00,
2013-04-14 11:39:00,67.3,63.3,29.81,SE,140,4.0,15.0,87,0.00,,,2.73,meteohub,2013-04-14 16:39:00,
2013-04-14 11:44:00,66.9,63.0,29.82,SSE,160,2.0,9.0,87,0.00,,,2.73,meteohub,2013-04-14 16:44:00,
2013-04-14 11:49:00,66.7,63.1,29.81,ESE,115,0.0,11.0,88,0.00,,,2.73,meteohub,2013-04-14 16:49:00,
2013-04-14 11:54:00,66.7,63.1,29.81,ENE,78,9.0,11.0,88,0.00,,,2.73,meteohub,2013-04-14 16:54:00,
2013-04-14 11:59:00,66.6,63.0,29.81,ENE,75,4.0,11.0,88,0.00,,,2.73,meteohub,2013-04-14 16:59:00,
2013-04-14 12:04:00,66.4,62.4,29.81,East,96,8.0,10.0,87,0.00,,,2.73,meteohub,2013-04-14 17:04:00,
2013-04-14 12:10:00,66.6,63.0,29.81,East,88,3.0,11.0,88,0.00,,,2.73,meteohub,2013-04-14 17:10:00,
2013-04-14 12:14:00,66.9,62.6,29.81,East,79,5.0,11.0,86,0.00,,,2.73,meteohub,2013-04-14 17:14:00,
2013-04-14 12:19:00,67.5,63.1,29.80,ESE,106,5.0,11.0,86,0.00,,,2.73,meteohub,2013-04-14 17:19:00,
2013-04-14 12:24:00,67.8,63.1,29.80,ESE,111,3.0,10.0,85,0.00,,,2.73,meteohub,2013-04-14 17:24:00,
2013-04-14 12:30:00,67.8,62.8,29.80,ENE,77,3.0,10.0,84,0.00,,,2.73,meteohub,2013-04-14 17:30:00,
2013-04-14 12:35:00,67.8,63.1,29.80,ESE,121,5.0,11.0,85,0.00,,,2.73,meteohub,2013-04-14 17:35:00,
2013-04-14 12:40:00,67.8,62.8,29.80,ENE,74,4.0,11.0,84,0.00,,,2.73,meteohub,2013-04-14 17:40:00,
2013-04-14 12:45:00,67.8,62.8,29.81,ESE,109,2.0,11.0,84,0.00,,,2.73,meteohub,2013-04-14 17:45:00,
2013-04-14 12:50:00,68.2,63.1,29.80,East,100,5.0,11.0,84,0.00,,,2.73,meteohub,2013-04-14 17:50:00,
2013-04-14 12:55:00,68.4,63.3,29.80,East,88,2.0,11.0,84,0.00,,,2.73,meteohub,2013-04-14 17:55:00,
2013-04-14 13:00:00,68.5,62.8,29.80,SE,142,0.0,10.0,82,0.00,,,2.73,meteohub,2013-04-14 18:00:00,
2013-04-14 13:05:00,68.7,63.0,29.80,East,82,7.0,8.0,82,0.00,,,2.73,meteohub,2013-04-14 18:05:00,
2013-04-14 13:10:00,68.7,62.6,29.80,East,98,2.0,11.0,81,0.00,,,2.73,meteohub,2013-04-14 18:10:00,
2013-04-14 13:15:00,68.5,62.4,29.80,East,84,10.0,11.0,81,0.00,,,2.73,meteohub,2013-04-14 18:15:00,
2013-04-14 13:20:00,68.0,62.2,29.80,ESE,116,3.0,11.0,82,0.00,,,2.73,meteohub,2013-04-14 18:20:00,
2013-04-14 13:25:00,67.8,62.4,29.80,ENE,64,3.0,11.0,83,0.00,,,2.73,meteohub,2013-04-14 18:25:00,
2013-04-14 13:30:00,67.6,62.6,29.80,SSE,155,7.0,11.0,84,0.00,,,2.73,meteohub,2013-04-14 18:30:00,
2013-04-14 13:35:00,67.8,62.8,29.80,SSE,151,5.0,10.0,84,0.00,,,2.73,meteohub,2013-04-14 18:35:00,
2013-04-14 13:40:00,68.2,62.8,29.80,SSE,156,2.0,10.0,83,0.00,,,2.73,meteohub,2013-04-14 18:40:00,
2013-04-14 13:45:00,68.5,62.8,29.80,ENE,61,3.0,9.0,82,0.00,,,2.73,meteohub,2013-04-14 18:45:00,
2013-04-14 13:50:00,68.4,63.0,29.79,East,98,0.0,7.0,83,0.00,,,2.73,meteohub,2013-04-14 18:50:00,
2013-04-14 13:55:00,68.5,62.8,29.79,ESE,121,3.0,7.0,82,0.00,,,2.73,meteohub,2013-04-14 18:55:00,
2013-04-14 14:00:00,68.7,63.0,29.79,East,89,0.0,7.0,82,0.00,,,2.73,meteohub,2013-04-14 19:00:00,
2013-04-14 14:05:00,68.7,63.0,29.79,SSE,153,1.0,7.0,82,0.00,,,2.73,meteohub,2013-04-14 19:05:00,
2013-04-14 14:10:00,68.9,63.1,29.79,ESE,108,2.0,7.0,82,0.00,,,2.73,meteohub,2013-04-14 19:10:00,
2013-04-14 14:15:00,69.1,62.6,29.79,ESE,116,2.0,7.0,80,0.00,,,2.73,meteohub,2013-04-14 19:15:00,
2013-04-14 14:20:00,69.3,62.8,29.78,NE,49,2.0,5.0,80,0.00,,,2.73,meteohub,2013-04-14 19:20:00,
2013-04-14 14:25:00,69.4,63.0,29.78,SE,138,0.0,5.0,80,0.00,,,2.73,meteohub,2013-04-14 19:25:00,
2013-04-14 14:30:00,70.0,63.9,29.78,South,185,2.0,5.0,81,0.00,,,2.73,meteohub,2013-04-14 19:30:00,
2013-04-14 14:35:00,70.5,63.7,29.78,SSE,148,4.0,4.0,79,0.00,,,2.73,meteohub,2013-04-14 19:35:00,
2013-04-14 14:40:00,70.5,63.3,29.78,ESE,117,0.0,6.0,78,0.00,,,2.73,meteohub,2013-04-14 19:40:00,
2013-04-14 14:45:00,70.7,63.5,29.77,ESE,117,1.0,6.0,78,0.00,,,2.73,meteohub,2013-04-14 19:45:00,
2013-04-14 14:50:00,71.1,63.9,29.77,SE,138,3.0,5.0,78,0.00,,,2.73,meteohub,2013-04-14 19:50:00,
2013-04-14 14:55:00,71.6,64.4,29.76,SE,140,2.0,5.0,78,0.00,,,2.73,meteohub,2013-04-14 19:55:00,
2013-04-14 15:00:00,72.1,64.9,29.75,East,84,1.0,6.0,78,0.00,,,2.73,meteohub,2013-04-14 20:00:00,
2013-04-14 15:05:00,72.5,64.6,29.75,NE,51,4.0,7.0,76,0.00,,,2.73,meteohub,2013-04-14 20:05:00,
2013-04-14 15:10:00,73.0,64.6,29.75,SE,134,6.0,7.0,75,0.00,,,2.73,meteohub,2013-04-14 20:10:00,
2013-04-14 15:15:00,73.0,64.6,29.75,East,92,0.0,7.0,75,0.00,,,2.73,meteohub,2013-04-14 20:15:00,
2013-04-14 15:20:00,73.2,64.0,29.75,SE,132,4.0,7.0,73,0.00,,,2.73,meteohub,2013-04-14 20:20:00,
2013-04-14 15:25:00,72.9,64.4,29.75,SE,145,3.0,7.0,75,0.00,,,2.73,meteohub,2013-04-14 20:25:00,
2013-04-14 15:30:00,73.0,64.6,29.75,ESE,113,3.0,7.0,75,0.00,,,2.73,meteohub,2013-04-14 20:30:00,
2013-04-14 15:35:00,73.4,65.3,29.74,East,97,5.0,7.0,76,0.00,,,2.73,meteohub,2013-04-14 20:35:00,
2013-04-14 15:40:00,73.9,65.8,29.74,SSW,208,2.0,7.0,76,0.00,,,2.73,meteohub,2013-04-14 20:40:00,
2013-04-14 15:45:00,73.8,64.6,29.74,SE,127,5.0,8.0,73,0.00,,,2.73,meteohub,2013-04-14 20:45:00,
2013-04-14 15:50:00,73.9,65.5,29.73,East,98,8.0,8.0,75,0.00,,,2.73,meteohub,2013-04-14 20:50:00,
2013-04-14 15:55:00,73.9,65.1,29.73,SE,144,1.0,9.0,74,0.00,,,2.73,meteohub,2013-04-14 20:55:00,
2013-04-14 16:00:00,74.1,64.9,29.73,SSW,212,4.0,9.0,73,0.00,,,2.73,meteohub,2013-04-14 21:00:00,
2013-04-14 16:05:00,75.0,66.2,29.73,South,180,2.0,9.0,74,0.00,,,2.73,meteohub,2013-04-14 21:05:00,
2013-04-14 16:10:00,76.1,66.0,29.73,ESE,107,2.0,5.0,71,0.00,,,2.73,meteohub,2013-04-14 21:10:00,
2013-04-14 16:15:00,75.7,65.3,29.73,ESE,103,3.0,7.0,70,0.00,,,2.73,meteohub,2013-04-14 21:15:00,
2013-04-14 16:20:00,75.2,66.0,29.73,East,96,3.0,7.0,73,0.00,,,2.73,meteohub,2013-04-14 21:20:00,
2013-04-14 16:25:00,75.0,65.8,29.72,ESE,119,1.0,7.0,73,0.00,,,2.73,meteohub,2013-04-14 21:25:00,
2013-04-14 16:30:00,75.6,65.8,29.73,SE,144,4.0,7.0,72,0.00,,,2.73,meteohub,2013-04-14 21:30:00,
2013-04-14 16:35:00,75.7,66.9,29.73,SE,134,1.0,7.0,74,0.00,,,2.73,meteohub,2013-04-14 21:35:00,
2013-04-14 16:41:00,75.9,66.6,29.73,East,87,2.0,7.0,73,0.00,,,2.73,meteohub,2013-04-14 21:41:00,
2013-04-14 16:46:00,75.9,66.6,29.73,ESE,113,2.0,6.0,73,0.00,,,2.73,meteohub,2013-04-14 21:46:00,
2013-04-14 16:51:00,75.7,66.9,29.73,East,100,3.0,8.0,74,0.00,,,2.73,meteohub,2013-04-14 21:51:00,
2013-04-14 16:56:00,75.4,66.6,29.73,East,88,3.0,8.0,74,0.00,,,2.73,meteohub,2013-04-14 21:56:00,
2013-04-14 17:01:00,75.4,67.6,29.73,East,80,1.0,8.0,77,0.00,,,2.73,meteohub,2013-04-14 22:01:00,
2013-04-14 17:06:00,75.6,66.7,29.73,SE,125,5.0,8.0,74,0.00,,,2.73,meteohub,2013-04-14 22:06:00,
2013-04-14 17:11:00,75.2,66.7,29.73,SE,144,4.0,8.0,75,0.00,,,2.73,meteohub,2013-04-14 22:11:00,
2013-04-14 17:16:00,75.0,66.9,29.73,SE,141,3.0,8.0,76,0.00,,,2.73,meteohub,2013-04-14 22:16:00,
2013-04-14 17:21:00,75.2,67.1,29.73,East,94,6.0,8.0,76,0.00,,,2.73,meteohub,2013-04-14 22:21:00,
2013-04-14 17:26:00,74.8,66.4,29.73,ESE,121,3.0,8.0,75,0.00,,,2.73,meteohub,2013-04-14 22:26:00,
2013-04-14 17:31:00,74.8,66.4,29.73,ESE,113,3.0,8.0,75,0.00,,,2.73,meteohub,2013-04-14 22:31:00,
2013-04-14 17:36:00,74.8,66.4,29.73,East,86,2.0,7.0,75,0.00,,,2.73,meteohub,2013-04-14 22:36:00,
2013-04-14 17:41:00,75.2,67.1,29.73,South,186,2.0,7.0,76,0.00,,,2.73,meteohub,2013-04-14 22:41:00,
2013-04-14 17:46:00,75.6,66.7,29.73,SE,125,3.0,7.0,74,0.00,,,2.73,meteohub,2013-04-14 22:46:00,
2013-04-14 17:51:00,75.4,66.6,29.73,SE,132,3.0,8.0,74,0.00,,,2.73,meteohub,2013-04-14 22:51:00,
2013-04-14 17:56:00,75.4,66.6,29.73,East,90,3.0,8.0,74,0.00,,,2.73,meteohub,2013-04-14 22:56:00,
2013-04-14 18:02:00,75.6,67.1,29.73,SE,141,4.0,8.0,75,0.00,,,2.73,meteohub,2013-04-14 23:02:00,
2013-04-14 18:07:00,75.6,66.4,29.73,SSE,159,3.0,7.0,73,0.00,,,2.73,meteohub,2013-04-14 23:07:00,
2013-04-14 18:12:00,75.4,66.6,29.73,SE,125,0.0,8.0,74,0.00,,,2.73,meteohub,2013-04-14 23:12:00,
2013-04-14 18:17:00,75.6,66.7,29.73,SE,136,6.0,8.0,74,0.00,,,2.73,meteohub,2013-04-14 23:17:00,
2013-04-14 18:22:00,75.4,66.6,29.73,SSE,150,5.0,8.0,74,0.00,,,2.73,meteohub,2013-04-14 23:22:00,
2013-04-14 18:27:00,75.2,66.7,29.73,SE,130,2.0,6.0,75,0.00,,,2.73,meteohub,2013-04-14 23:27:00,
2013-04-14 18:32:00,75.0,66.6,29.73,SE,132,2.0,6.0,75,0.00,,,2.73,meteohub,2013-04-14 23:32:00,
2013-04-14 18:37:00,75.0,66.6,29.73,ESE,109,2.0,6.0,75,0.00,,,2.73,meteohub,2013-04-14 23:37:00,
2013-04-14 18:42:00,75.0,66.9,29.73,SE,129,0.0,4.0,76,0.00,,,2.73,meteohub,2013-04-14 23:42:00,
2013-04-14 18:47:00,75.0,66.9,29.73,SSE,159,0.0,4.0,76,0.00,,,2.73,meteohub,2013-04-14 23:47:00,
2013-04-14 18:52:00,74.7,66.6,29.73,SE,140,0.0,3.0,76,0.00,,,2.73,meteohub,2013-04-14 23:52:00,
2013-04-14 18:57:00,74.3,66.6,29.73,SE,142,2.0,4.0,77,0.00,,,2.73,meteohub,2013-04-14 23:57:00,
2013-04-14 19:02:00,73.9,66.2,29.74,SE,142,1.0,4.0,77,0.00,,,2.73,meteohub,2013-04-15 00:02:00,
2013-04-14 19:07:00,73.6,66.4,29.74,SE,137,0.0,4.0,78,0.00,,,2.73,meteohub,2013-04-15 00:07:00,
2013-04-14 19:13:00,73.2,66.4,29.74,SE,137,0.0,3.0,79,0.00,,,2.73,meteohub,2013-04-15 00:13:00,
2013-04-14 19:18:00,73.0,66.2,29.74,SE,137,1.0,3.0,79,0.00,,,2.73,meteohub,2013-04-15 00:18:00,
2013-04-14 19:23:00,72.7,66.2,29.74,SE,137,0.0,2.0,80,0.00,,,2.73,meteohub,2013-04-15 00:23:00,
2013-04-14 19:28:00,72.3,66.2,29.74,SE,137,0.0,2.0,81,0.00,,,2.73,meteohub,2013-04-15 00:28:00,
2013-04-14 19:33:00,72.0,65.8,29.75,SE,137,0.0,2.0,81,0.00,,,2.73,meteohub,2013-04-15 00:33:00,
2013-04-14 19:38:00,71.8,66.0,29.75,SE,137,0.0,2.0,82,0.00,,,2.73,meteohub,2013-04-15 00:38:00,
2013-04-14 19:43:00,71.4,65.7,29.74,SE,137,0.0,2.0,82,0.00,,,2.73,meteohub,2013-04-15 00:43:00,
2013-04-14 19:48:00,71.1,65.3,29.74,SE,137,0.0,2.0,82,0.00,,,2.73,meteohub,2013-04-15 00:48:00,
2013-04-14 19:53:00,70.9,65.5,29.75,SE,137,0.0,1.0,83,0.00,,,2.73,meteohub,2013-04-15 00:53:00,
2013-04-14 19:58:00,70.5,65.5,29.75,SE,137,0.0,1.0,84,0.00,,,2.73,meteohub,2013-04-15 00:58:00,
2013-04-14 20:03:00,70.3,65.7,29.75,SE,137,0.0,0.0,85,0.00,,,2.73,meteohub,2013-04-15 01:03:00,
2013-04-14 20:08:00,70.2,65.8,29.75,SE,137,0.0,0.0,86,0.00,,,2.73,meteohub,2013-04-15 01:08:00,
2013-04-14 20:13:00,70.0,65.7,29.75,SE,137,0.0,0.0,86,0.00,,,2.73,meteohub,2013-04-15 01:13:00,
2013-04-14 20:18:00,69.6,65.7,29.75,SE,137,0.0,0.0,87,0.00,,,2.73,meteohub,2013-04-15 01:18:00,
2013-04-14 20:23:00,69.3,65.5,29.75,SE,137,0.0,0.0,88,0.00,,,2.73,meteohub,2013-04-15 01:23:00,
2013-04-14 20:28:00,69.1,65.7,29.75,SE,137,1.0,1.0,89,0.00,,,2.73,meteohub,2013-04-15 01:28:00,
2013-04-14 20:33:00,68.7,65.3,29.75,SE,137,0.0,2.0,89,0.00,,,2.73,meteohub,2013-04-15 01:33:00,
2013-04-14 20:38:00,68.5,65.1,29.76,SE,137,1.0,2.0,89,0.00,,,2.73,meteohub,2013-04-15 01:38:00,
2013-04-14 20:43:00,68.5,65.1,29.76,East,97,0.0,2.0,89,0.00,,,2.73,meteohub,2013-04-15 01:43:00,
2013-04-14 20:48:00,68.4,64.4,29.76,ESE,113,1.0,4.0,87,0.00,,,2.73,meteohub,2013-04-15 01:48:00,
2013-04-14 20:53:00,68.4,64.0,29.76,SSE,149,0.0,4.0,86,0.00,,,2.73,meteohub,2013-04-15 01:53:00,
2013-04-14 20:58:00,68.5,63.9,29.76,ESE,120,0.0,6.0,85,0.00,,,2.73,meteohub,2013-04-15 01:58:00,
2013-04-14 21:03:00,68.4,63.3,29.76,ENE,67,1.0,6.0,84,0.00,,,2.73,meteohub,2013-04-15 02:03:00,
2013-04-14 21:08:00,68.4,63.3,29.76,East,83,2.0,6.0,84,0.00,,,2.73,meteohub,2013-04-15 02:08:00,
2013-04-14 21:13:00,68.4,63.3,29.76,East,90,0.0,5.0,84,0.00,,,2.73,meteohub,2013-04-15 02:13:00,
2013-04-14 21:18:00,68.2,63.1,29.76,East,92,0.0,5.0,84,0.00,,,2.73,meteohub,2013-04-15 02:18:00,
2013-04-14 21:23:00,68.0,63.0,29.77,East,94,0.0,5.0,84,0.00,,,2.73,meteohub,2013-04-15 02:23:00,
2013-04-14 21:28:00,67.8,63.1,29.77,ESE,107,1.0,4.0,85,0.00,,,2.73,meteohub,2013-04-15 02:28:00,
2013-04-14 21:33:00,67.6,63.0,29.77,SE,126,1.0,4.0,85,0.00,,,2.73,meteohub,2013-04-15 02:33:00,
2013-04-14 21:38:00,67.5,62.8,29.77,SE,126,1.0,5.0,85,0.00,,,2.73,meteohub,2013-04-15 02:38:00,
2013-04-14 21:43:00,67.3,62.6,29.77,ESE,123,1.0,5.0,85,0.00,,,2.73,meteohub,2013-04-15 02:43:00,
2013-04-14 21:48:00,67.1,62.8,29.78,ESE,123,2.0,5.0,86,0.00,,,2.73,meteohub,2013-04-15 02:48:00,
2013-04-14 21:53:00,66.9,62.6,29.78,ESE,121,0.0,3.0,86,0.00,,,2.73,meteohub,2013-04-15 02:53:00,
2013-04-14 21:58:00,66.7,62.4,29.78,ENE,75,0.0,3.0,86,0.00,,,2.73,meteohub,2013-04-15 02:58:00,
2013-04-14 22:03:00,66.6,62.6,29.78,ENE,74,1.0,4.0,87,0.00,,,2.73,meteohub,2013-04-15 03:03:00,
2013-04-14 22:08:00,66.4,62.4,29.78,ENE,74,1.0,4.0,87,0.00,,,2.73,meteohub,2013-04-15 03:08:00,
2013-04-14 22:13:00,66.2,62.6,29.78,ESE,112,1.0,4.0,88,0.00,,,2.73,meteohub,2013-04-15 03:13:00,
2013-04-14 22:18:00,66.0,62.4,29.79,ESE,108,0.0,3.0,88,0.00,,,2.73,meteohub,2013-04-15 03:18:00,
2013-04-14 22:23:00,65.8,62.4,29.79,ESE,108,0.0,3.0,89,0.00,,,2.73,meteohub,2013-04-15 03:23:00,
2013-04-14 22:28:00,65.7,62.6,29.79,East,82,0.0,3.0,90,0.00,,,2.73,meteohub,2013-04-15 03:28:00,
2013-04-14 22:33:00,65.5,62.4,29.80,East,82,1.0,3.0,90,0.00,,,2.73,meteohub,2013-04-15 03:33:00,
2013-04-14 22:38:00,65.3,62.6,29.80,East,82,1.0,3.0,91,0.00,,,2.73,meteohub,2013-04-15 03:38:00,
2013-04-14 22:43:00,65.3,63.0,29.80,ENE,74,2.0,3.0,92,0.00,,,2.73,meteohub,2013-04-15 03:43:00,
2013-04-14 22:48:00,65.3,63.0,29.80,ESE,109,1.0,5.0,92,0.00,,,2.73,meteohub,2013-04-15 03:48:00,
2013-04-14 22:53:00,65.3,63.0,29.80,ESE,108,1.0,5.0,92,0.00,,,2.73,meteohub,2013-04-15 03:53:00,
2013-04-14 22:58:00,65.3,63.1,29.81,ENE,78,1.0,3.0,93,0.00,,,2.73,meteohub,2013-04-15 03:58:00,
2013-04-14 23:00:00,65.3,63.1,29.80,East,86,2.0,3.0,93,0.00,,,2.73,meteohub,2013-04-15 04:00:00,
2013-04-14 23:05:00,65.3,63.1,29.80,East,88,2.0,3.0,93,0.00,,,2.73,meteohub,2013-04-15 04:05:00,
2013-04-14 23:10:00,65.3,63.1,29.81,ESE,103,0.0,2.0,93,0.00,,,2.73,meteohub,2013-04-15 04:10:00,
2013-04-14 23:15:00,65.3,63.5,29.81,ESE,108,0.0,3.0,94,0.00,,,2.73,meteohub,2013-04-15 04:15:00,
2013-04-14 23:20:00,65.3,63.5,29.81,SE,140,1.0,3.0,94,0.00,,,2.73,meteohub,2013-04-15 04:20:00,
2013-04-14 23:25:00,65.5,63.7,29.81,SE,140,0.0,5.0,94,0.00,,,2.73,meteohub,2013-04-15 04:25:00,
2013-04-14 23:30:00,65.3,63.5,29.81,SE,140,0.0,5.0,94,0.00,,,2.73,meteohub,2013-04-15 04:30:00,
2013-04-14 23:35:00,65.3,63.5,29.81,ESE,120,0.0,3.0,94,0.00,,,2.73,meteohub,2013-04-15 04:35:00,
2013-04-14 23:40:00,65.3,63.5,29.81,ESE,121,0.0,3.0,94,0.00,,,2.73,meteohub,2013-04-15 04:40:00,
2013-04-14 23:45:00,65.3,63.9,29.81,South,169,2.0,3.0,95,0.00,,,2.73,meteohub,2013-04-15 04:45:00,
2013-04-14 23:50:00,65.3,63.9,29.81,ESE,117,2.0,4.0,95,0.00,,,2.73,meteohub,2013-04-15 04:50:00,
2013-04-14 23:55:00,65.1,63.7,29.81,SSE,156,1.0,4.0,95,0.00,,,2.73,meteohub,2013-04-15 04:55:00,